(252732) = 2002 CO275 = 2005 ST159

Discovered at Kitt Peak on 2002-02-09 by Spacewatch.

Orbit

Orbit type: Main Belt

Note: WebGL enabled browser required.

epoch2024-03-31.0
epoch JD2460400.5
perihelion date2021-09-09.55669
perihelion JD2459467.05670
argument of perihelion (°)56.59420
ascending node (°)322.93224
inclination (°)7.26246
eccentricity0.1020529
perihelion distance (AU)2.7281932
Tisserand w.r.t. Jupiter3.2
ΔV w.r.t. Earth (km/sec)10.5
semimajor axis (AU)3.0382561
mean anomaly (°)173.72225
mean daily motion (°/day)0.18610910
aphelion distance (AU)3.348
period (years)5.3
P-vector [x]0.93845060
P-vector [y]0.25978064
P-vector [z]0.22764994
Q-vector [x]-0.33690415
Q-vector [y]0.83379662
Q-vector [z]0.43735431
absolute magnitude15.93
phase slope0.15
uncertainty0
referenceE2024-H18
observations used460
oppositions16
arc length (days)10820
first opposition used1994
last opposition used2024
residual rms (arc-secs)0.69
perturbers coarse indicatorM-v
perturbers precise indicator003Ek
first observation date used1994-09-01.0
last observation date used2024-04-16.0
computer nameMPCLINUX
JD of orbit computation2456789.366226
perihelion JD uncertainty (days)2.1629E-04
argument of perihelion uncertainty (°)6.0215E-05
ascending node uncertainty (°)4.5955E-05
inclination uncertainty (°)1.0792E-05
eccentricity uncertainty 8.3539E-08
perihelion distance uncertainty (AU)2.5787E-07
Minimum Orbit Intersection Distances (in AU)
for orbit epoch: 2460400.5, reference: E2024-H18
Mercury2.38776
Venus2.01469
Earth1.73805
Mars1.31304
Jupiter2.15392
Saturn6.02864
Uranus15.1481
Neptune27.1072

Observations

458 total observations over interval: 1994 09 01.22058 – 2024 03 19.466530
These data are available for download (format description).

Date (UT) J2000 RA J2000 Dec Magn Location Ref
1994 09 01.22058 21 55 57.05 -10 57 08.0 19.5 V 691 – Steward Observatory, Kitt Peak-Spacewatch MPS 175692
1994 09 01.24437 21 55 55.84 -10 57 11.1   691 – Steward Observatory, Kitt Peak-Spacewatch MPS 175692
1994 09 01.26866 21 55 54.63 -10 57 13.8   691 – Steward Observatory, Kitt Peak-Spacewatch MPS 175692
1994 09 08.24334 21 50 31.66 -11 08 53.0 20.2 V 691 – Steward Observatory, Kitt Peak-Spacewatch MPS 309242
1994 09 08.26663 21 50 30.59 -11 08 54.2   691 – Steward Observatory, Kitt Peak-Spacewatch MPS 309242
1994 09 08.29021 21 50 29.27 -11 08 56.9   691 – Steward Observatory, Kitt Peak-Spacewatch MPS 309242
2002 02 09.19062 09 19 34.34 +16 36 28.2 20.3 V 691 – Steward Observatory, Kitt Peak-Spacewatch MPS 54780
2002 02 09.21234 09 19 33.17 +16 36 31.1 20.6 V 691 – Steward Observatory, Kitt Peak-Spacewatch MPS 54780
2002 02 09.23415 09 19 31.99 +16 36 33.8 20.8 V 691 – Steward Observatory, Kitt Peak-Spacewatch MPS 54780
2002 02 10.24068 09 18 38.55 +16 38 35.9 20.0   704 – Lincoln Laboratory ETS, New Mexico MPS 54780
2002 02 10.25481 09 18 37.81 +16 38 38.1 19.9   704 – Lincoln Laboratory ETS, New Mexico MPS 54780
2002 02 10.27187 09 18 36.86 +16 38 40.5 19.8   704 – Lincoln Laboratory ETS, New Mexico MPS 54780
2002 02 10.30216 09 18 35.25 +16 38 44.5 20.1   704 – Lincoln Laboratory ETS, New Mexico MPS 54780
2002 02 12.25616 09 16 52.23 +16 42 33.9 20.5   704 – Lincoln Laboratory ETS, New Mexico MPS 54780
2002 02 12.27038 09 16 51.49 +16 42 36.0 20.3   704 – Lincoln Laboratory ETS, New Mexico MPS 54780
2002 02 12.28485 09 16 50.75 +16 42 39.9 20.5   704 – Lincoln Laboratory ETS, New Mexico MPS 54780
2005 09 10.33386 00 56 34.13 +14 21 07.5 19.8 R 699 – Lowell Observatory-LONEOS MPS 150777
2005 09 10.35664 00 56 33.27 +14 21 08.6   699 – Lowell Observatory-LONEOS MPS 150777
2005 09 10.37940 00 56 32.59 +14 21 07.0   699 – Lowell Observatory-LONEOS MPS 150777
2005 09 10.40214 00 56 31.69 +14 21 10.5   699 – Lowell Observatory-LONEOS MPS 150777
2005 09 26.43802 00 45 09.80 +14 05 32.0 19.7 R 644 – Palomar Mountain/NEAT MPS 144333
2005 09 26.46400 00 45 08.50 +14 05 28.4 19.5 R 644 – Palomar Mountain/NEAT MPS 144333
2005 09 26.48751 00 45 07.34 +14 05 25.4 19.6 R 644 – Palomar Mountain/NEAT MPS 144333
2005 10 03.26752 00 39 31.13 +13 47 31.3 19.4   704 – Lincoln Laboratory ETS, New Mexico MPS 144333
2005 10 03.27867 00 39 30.58 +13 47 29.6 19.4   704 – Lincoln Laboratory ETS, New Mexico MPS 144333
2005 10 03.28944 00 39 30.05 +13 47 27.3 19.6   704 – Lincoln Laboratory ETS, New Mexico MPS 144333
2005 10 03.30024 00 39 29.42 +13 47 25.3 19.5   704 – Lincoln Laboratory ETS, New Mexico MPS 144333
2005 10 08.25156 00 35 21.17 +13 31 04.5 19.3   704 – Lincoln Laboratory ETS, New Mexico MPS 146194
2005 10 08.26239 00 35 20.64 +13 31 02.2 19.7   704 – Lincoln Laboratory ETS, New Mexico MPS 146194
2005 10 08.27343 00 35 20.04 +13 30 59.8 19.6   704 – Lincoln Laboratory ETS, New Mexico MPS 146194
2005 10 08.28426 00 35 19.51 +13 30 58.0 19.8   704 – Lincoln Laboratory ETS, New Mexico MPS 146194
2005 10 08.29510 00 35 18.94 +13 30 55.3 19.1   704 – Lincoln Laboratory ETS, New Mexico MPS 146194
2005 10 23.19150 00 23 59.37 +12 32 46.0 20.5 R 683 – Goodricke-Pigott Observatory, Tucson MPS 150777
2005 10 23.20514 00 23 58.66 +12 32 43.8 20.3 R 683 – Goodricke-Pigott Observatory, Tucson MPS 150777
2005 10 23.21884 00 23 58.07 +12 32 42.3 20.6 R 683 – Goodricke-Pigott Observatory, Tucson MPS 150777
2007 01 28.15540 07 40 16.21 +26 10 32.2 20.5 V 691 – Steward Observatory, Kitt Peak-Spacewatch MPS 198037
2007 01 28.16580 07 40 15.65 +26 10 32.4 20.4 V 691 – Steward Observatory, Kitt Peak-Spacewatch MPS 198037
2007 01 28.17318 07 40 15.24 +26 10 31.7 20.1 V G96 – Mt. Lemmon Survey MPS 198037
2007 01 28.17596 07 40 15.09 +26 10 32.1 20.3 V 691 – Steward Observatory, Kitt Peak-Spacewatch MPS 198037
2007 01 28.18005 07 40 14.91 +26 10 32.4 19.9 V G96 – Mt. Lemmon Survey MPS 198037
2007 01 28.18693 07 40 14.55 +26 10 31.6 20.3 V G96 – Mt. Lemmon Survey MPS 198037
2007 01 28.19375 07 40 14.16 +26 10 31.6 20.4 V G96 – Mt. Lemmon Survey MPS 198037
2008 03 04.28487 12 31 43.55 -10 28 34.1 20.8 V 691 – Steward Observatory, Kitt Peak-Spacewatch MPS 240639
2008 03 04.30252 12 31 42.89 -10 28 32.5 20.7 V 691 – Steward Observatory, Kitt Peak-Spacewatch MPS 240639
2008 03 04.32016 12 31 42.16 -10 28 31.2 21.2 V 691 – Steward Observatory, Kitt Peak-Spacewatch MPS 240639
2010 06 06.46130 23 01 30.11 -06 15 40.6 21.5 V 291 – LPL/Spacewatch II MPS 330743
2010 06 06.46523 23 01 30.31 -06 15 39.3 22.0 V 291 – LPL/Spacewatch II MPS 330743
2010 06 06.47063 23 01 30.53 -06 15 36.6 21.6 V 291 – LPL/Spacewatch II MPS 330743
2010 08 29.522635 22 57 06.681 -02 51 22.60 19.74 i F51 – Pan-STARRS 1, Haleakala MPS 366826
2010 08 29.533661 22 57 06.117 -02 51 23.95 19.59 i F51 – Pan-STARRS 1, Haleakala MPS 366826
2010 09 01.30933 22 54 50.17 -02 57 20.2 19.6   704 – Lincoln Laboratory ETS, New Mexico MPS 346228
2010 09 01.32087 22 54 49.52 -02 57 22.3 19.7   704 – Lincoln Laboratory ETS, New Mexico MPS 346228
2010 09 01.34388 22 54 48.41 -02 57 25.8 19.5   704 – Lincoln Laboratory ETS, New Mexico MPS 346228
2010 09 01.35583 22 54 47.72 -02 57 27.2 20.1   704 – Lincoln Laboratory ETS, New Mexico MPS 346228
2010 09 04.32594 22 52 20.13 -03 04 16.8 19.5 V G96 – Mt. Lemmon Survey MPS 347067
2010 09 04.33170 22 52 19.84 -03 04 17.7 19.5 V G96 – Mt. Lemmon Survey MPS 347067
2010 09 04.33738 22 52 19.52 -03 04 18.6 19.4 V G96 – Mt. Lemmon Survey MPS 347067
2010 09 04.34319 22 52 19.23 -03 04 19.5 19.4 V G96 – Mt. Lemmon Survey MPS 347067
2010 09 05.23119 22 51 35.09 -03 06 27.7 19.3   704 – Lincoln Laboratory ETS, New Mexico MPS 347067
2010 09 05.23133 22 51 35.08 -03 06 26.6 19.4   704 – Lincoln Laboratory ETS, New Mexico MPS 347067
2010 09 05.24287 22 51 34.47 -03 06 28.6 19.2   704 – Lincoln Laboratory ETS, New Mexico MPS 347067
2010 09 05.24301 22 51 34.50 -03 06 27.8 19.5   704 – Lincoln Laboratory ETS, New Mexico MPS 347067
2010 09 05.25454 22 51 33.86 -03 06 30.2 19.6   704 – Lincoln Laboratory ETS, New Mexico MPS 347067
2010 09 05.25468 22 51 33.85 -03 06 29.7 19.5   704 – Lincoln Laboratory ETS, New Mexico MPS 347067
2010 09 08.27102 22 49 03.43 -03 13 50.9 19.6   704 – Lincoln Laboratory ETS, New Mexico MPS 347067
2010 09 08.28291 22 49 02.83 -03 13 53.2 19.5   704 – Lincoln Laboratory ETS, New Mexico MPS 347067
2010 09 08.29483 22 49 02.22 -03 13 54.5 19.6   704 – Lincoln Laboratory ETS, New Mexico MPS 347067
2010 09 10.465019 22 47 14.865 -03 19 20.67 20.15 g F51 – Pan-STARRS 1, Haleakala MPS 366826
2010 09 10.476048 22 47 14.301 -03 19 22.67 20.13 g F51 – Pan-STARRS 1, Haleakala MPS 366826
2010 09 10.488862 22 47 13.671 -03 19 24.47 19.67 r F51 – Pan-STARRS 1, Haleakala MPS 366826
2010 09 10.500459 22 47 13.058 -03 19 26.29 19.60 r F51 – Pan-STARRS 1, Haleakala MPS 366826
2010 09 11.30910 22 46 33.51 -03 21 29.0 19.8   704 – Lincoln Laboratory ETS, New Mexico MPS 347892
2010 09 11.32122 22 46 32.91 -03 21 32.0 20.1   704 – Lincoln Laboratory ETS, New Mexico MPS 347892
2010 09 11.33336 22 46 32.32 -03 21 32.7 19.6   704 – Lincoln Laboratory ETS, New Mexico MPS 347892
2010 09 11.34548 22 46 31.71 -03 21 33.1 19.7   704 – Lincoln Laboratory ETS, New Mexico MPS 347892
2010 09 12.20403 22 45 50.11 -03 23 44.5 19.6 V 703 – Catalina Sky Survey MPS 347892
2010 09 12.20856 22 45 49.96 -03 23 45.3 19.4 V 703 – Catalina Sky Survey MPS 347892
2010 09 12.21314 22 45 49.68 -03 23 46.1 19.7 V 703 – Catalina Sky Survey MPS 347892
2010 09 12.21769 22 45 49.46 -03 23 47.0 19.8 V 703 – Catalina Sky Survey MPS 347892
2010 11 05.11766 22 28 16.03 -04 09 16.9 20.2 V G96 – Mt. Lemmon Survey MPS 355225
2010 11 05.12355 22 28 16.14 -04 09 15.9 20.3 V G96 – Mt. Lemmon Survey MPS 355225
2010 11 05.12931 22 28 16.24 -04 09 15.1 20.4 V G96 – Mt. Lemmon Survey MPS 355225
2010 11 05.13508 22 28 16.35 -04 09 14.8 20.3 V G96 – Mt. Lemmon Survey MPS 355225
2010 11 12.11347 22 30 52.82 -03 53 12.1 19.3 Y W91 – VHS-VISTA, Cerro Paranal MPS 678295
2010 11 12.11486 22 30 52.87 -03 53 11.8 19.6 Y W91 – VHS-VISTA, Cerro Paranal MPS 678295
